"Pseudo-MPEC" for P1189HU

Created 2020 Oct 18 7:07:33 UT using Find_Orb

Click here for an explanation of pseudo-MPECs

 
 Astrometry: 
     P1189HU  C2020 10 16[2i9urGrvkKl=fhHw\]c[UmT:==,Tsg@Astrometryc;5'hS$Y$pF51
     P1189HU  C2020 10 16wDredacted;8EAt\_0k,d+I'7#!XC^8clickSf`D`?heren7=,\9F51
     P1189HU  C2020 10 16Zrxforjc*/ISj`0kexplanations-cWEw#u@vCW9OmRdeP.(4=QAF51

Station data:
(F51) Pan-STARRS 1, Haleakala  (N20.707235 W156.255910)  US/Hawaii.
   Observers N. Primak, A. Schultz, S. Watters, J. Thiel, T. Goggia. Measurer
   PS1 Science Consortium. 1.8-m Ritchey-Chrétien + CCD.

Orbital elements:  P1189HU
   Perihelion 2020 Oct 9.512517 +/- 36.4 TT = 12:18:01 (JD 2459132.012517)
Epoch 2020 Oct 16.0 TT = JDT 2459138.5   Earth MOID: 0.3245   Ma: 0.0235
M   1.44965941 +/- 36               (J2000 ecliptic)          AutoNEOCP
n   0.22345481 +/- 0.354            Peri.  239.11354 +/- 120
a   2.68952900 +/- 2.84             Node   126.79624 +/- 42
e   0.5133944 +/- 0.252             Incl.    6.47206 +/- 21
P   4.41                   H 22.6   G  0.15   U 12.0  SR
q 1.30873961 +/- 0.444    Q 4.07031839 +/- 37.5
From 3 observations 2020 Oct. 16 (41.7 min); mean residual 0".14
Residuals in arcseconds: 
201016 F51  .09+  .16-    201016 F51  .14-  .24+    201016 F51  .06+  .06-    

Ephemerides (geocentric):
Date (UTC) HH   RA              Dec         delta   r     elong  mag " sig PA
---- -- -- --  -------------   -----------  ------ ------ -----  --- ---- ---
2020 10 18 07  23 19 00.545   -25 08 35.21  .41537 1.3121 132.3 22.7 1275 171
2020 10 18 08  23 19 05.788   -25 08 00.11  .41551 1.3122 132.2 22.7 1307 171
2020 10 18 09  23 19 11.033   -25 07 24.94  .41564 1.3122 132.2 22.7 1339 171
2020 10 18 10  23 19 16.280   -25 06 49.72  .41577 1.3122 132.2 22.7 1372 171
2020 10 18 11  23 19 21.528   -25 06 14.42  .41590 1.3123 132.2 22.7 1406 171
2020 10 18 12  23 19 26.778   -25 05 39.07  .41604 1.3123 132.2 22.7 1440 171
2020 10 18 13  23 19 32.030   -25 05 03.66  .41617 1.3123 132.2 22.7 1476 170
2020 10 18 14  23 19 37.283   -25 04 28.18  .41630 1.3124 132.2 22.7 1512 170
2020 10 18 15  23 19 42.539   -25 03 52.64  .41643 1.3124 132.1 22.7 1549 170
2020 10 18 16  23 19 47.795   -25 03 17.04  .41657 1.3124 132.1 22.7 1586 170
2020 10 18 17  23 19 53.054   -25 02 41.38  .41670 1.3125 132.1 22.7 1625 170
2020 10 18 18  23 19 58.314   -25 02 05.65  .41684 1.3125 132.1 22.7 1664 169
2020 10 18 19  23 20 03.576   -25 01 29.87  .41697 1.3125 132.1 22.7 1704 169
2020 10 18 20  23 20 08.840   -25 00 54.02  .41710 1.3126 132.1 22.7 1746 169
2020 10 18 21  23 20 14.105   -25 00 18.11  .41724 1.3126 132.0 22.7 1788 169
2020 10 18 22  23 20 19.372   -24 59 42.14  .41737 1.3127 132.0 22.7 1831 169
2020 10 18 23  23 20 24.640   -24 59 06.11  .41751 1.3127 132.0 22.7 1875 169
2020 10 19 00  23 20 29.911   -24 58 30.01  .41764 1.3127 132.0 22.7 1920 168
2020 10 19 01  23 20 35.182   -24 57 53.86  .41777 1.3128 132.0 22.7 1966 168
2020 10 19 02  23 20 40.456   -24 57 17.64  .41791 1.3128 132.0 22.7 2014 168
2020 10 19 03  23 20 45.731   -24 56 41.36  .41804 1.3128 131.9 22.7 2062 168
2020 10 19 04  23 20 51.008   -24 56 05.02  .41818 1.3129 131.9 22.7 2112 168
2020 10 19 05  23 20 56.286   -24 55 28.62  .41832 1.3129 131.9 22.7 2163 168
2020 10 19 06  23 21 01.566   -24 54 52.16  .41845 1.3129 131.9 22.7 2215 167
2020 10 19 07  23 21 06.848   -24 54 15.64  .41859 1.3130 131.9 22.7 2268 167
2020 10 19 08  23 21 12.131   -24 53 39.05  .41872 1.3130 131.9 22.7 2323 167
2020 10 19 09  23 21 17.416   -24 53 02.41  .41886 1.3130 131.9 22.7 2379 167
2020 10 19 10  23 21 22.702   -24 52 25.70  .41899 1.3131 131.8 22.7 2436 167
2020 10 19 11  23 21 27.990   -24 51 48.94  .41913 1.3131 131.8 22.8 2495 167
2020 10 19 12  23 21 33.280   -24 51 12.11  .41927 1.3131 131.8 22.8 2556 167
2020 10 19 13  23 21 38.571   -24 50 35.22  .41940 1.3132 131.8 22.8 2618 167
2020 10 19 14  23 21 43.864   -24 49 58.28  .41954 1.3132 131.8 22.8 2682 166
2020 10 19 15  23 21 49.158   -24 49 21.27  .41968 1.3133 131.8 22.8 2748 166
2020 10 19 16  23 21 54.454   -24 48 44.20  .41982 1.3133 131.7 22.8 2815 166
2020 10 19 17  23 21 59.751   -24 48 07.07  .41995 1.3133 131.7 22.8 2884 166
2020 10 19 18  23 22 05.050   -24 47 29.88  .42009 1.3134 131.7 22.8 2956 166
2020 10 19 19  23 22 10.351   -24 46 52.64  .42023 1.3134 131.7 22.8 3029 166
2020 10 19 20  23 22 15.653   -24 46 15.33  .42037 1.3134 131.7 22.8 3105 166
2020 10 19 21  23 22 20.957   -24 45 37.96  .42050 1.3135 131.7 22.8 3183 165
2020 10 19 22  23 22 26.262   -24 45 00.53  .42064 1.3135 131.7 22.8 3263 165
2020 10 19 23  23 22 31.569   -24 44 23.04  .42078 1.3136 131.6 22.8 3345 165
2020 10 20 00  23 22 36.877   -24 43 45.49  .42092 1.3136 131.6 22.8 3431 165
2020 10 20 01  23 22 42.187   -24 43 07.89  .42106 1.3136 131.6 22.8 3519 165
2020 10 20 02  23 22 47.499   -24 42 30.22  .42120 1.3137 131.6 22.8 3609 165
2020 10 20 03  23 22 52.812   -24 41 52.49  .42133 1.3137 131.6 22.8 3703 165
2020 10 20 04  23 22 58.126   -24 41 14.70  .42147 1.3138 131.6 22.8 3800 165
2020 10 20 05  23 23 03.442   -24 40 36.86  .42161 1.3138 131.5 22.8 3900 164
2020 10 20 06  23 23 08.760   -24 39 58.95  .42175 1.3138 131.5 22.8 4004 164